TimeEDT,TemperatureF,Dew PointF,Humidity,Sea Level PressureIn,VisibilityMPH,Wind Direction,Wind SpeedMPH,Gust SpeedMPH,PrecipitationIn,Events,Conditions,WindDirDegrees,DateUTC
12:53 AM,10.9,3.9,73,29.85,10.0,Calm,Calm,-,N/A,,Clear,0,2013-03-17 04:53:00
1:53 AM,10.0,3.0,73,29.86,10.0,Calm,Calm,-,N/A,,Clear,0,2013-03-17 05:53:00
2:53 AM,7.0,1.0,77,29.85,10.0,Calm,Calm,-,N/A,,Clear,0,2013-03-17 06:53:00
3:53 AM,5.0,1.0,84,29.86,10.0,Calm,Calm,-,N/A,,Clear,0,2013-03-17 07:53:00
4:53 AM,3.0,-2.0,80,29.86,10.0,Calm,Calm,-,N/A,,Clear,0,2013-03-17 08:53:00
5:53 AM,1.9,-2.9,80,29.87,10.0,Calm,Calm,-,N/A,,Clear,0,2013-03-17 09:53:00
6:53 AM,1.9,-2.9,80,29.88,10.0,Calm,Calm,-,N/A,,Clear,0,2013-03-17 10:53:00
7:53 AM,12.0,3.9,70,29.87,10.0,Calm,Calm,-,N/A,,Clear,0,2013-03-17 11:53:00
8:53 AM,17.1,5.0,59,29.86,10.0,West,3.5,-,N/A,,Mostly Cloudy,260,2013-03-17 12:53:00
9:53 AM,19.0,6.1,57,29.86,9.0,SW,8.1,-,N/A,,Overcast,230,2013-03-17 13:53:00
10:11 AM,19.4,8.6,63,29.82,2.5,West,8.1,-,0.00,Snow,Light Snow,260,2013-03-17 14:11:00
10:19 AM,19.4,8.6,63,29.83,5.0,WSW,10.4,23.0,0.00,,Haze,240,2013-03-17 14:19:00
10:28 AM,19.4,10.4,68,29.83,3.0,WSW,13.8,24.2,0.00,Snow,Light Snow,240,2013-03-17 14:28:00
10:35 AM,19.4,10.4,68,29.83,2.0,West,12.7,-,0.00,Snow,Light Snow,260,2013-03-17 14:35:00
10:53 AM,19.0,10.9,71,29.86,1.5,West,15.0,23.0,0.00,Snow,Light Snow,260,2013-03-17 14:53:00
11:00 AM,19.4,10.4,68,29.83,1.2,West,15.0,23.0,0.00,Snow,Light Snow,260,2013-03-17 15:00:00
11:13 AM,19.4,12.2,74,29.83,0.8,West,13.8,18.4,0.00,Snow,Light Snow,260,2013-03-17 15:13:00
11:23 AM,19.4,12.2,74,29.84,0.5,West,17.3,23.0,0.00,Snow,Snow,260,2013-03-17 15:23:00
11:29 AM,17.6,10.4,73,29.84,1.5,West,11.5,23.0,N/A,Snow,Light Snow,260,2013-03-17 15:29:00
11:35 AM,19.4,12.2,74,29.84,3.0,West,12.7,19.6,0.00,Snow,Light Snow,280,2013-03-17 15:35:00
11:53 AM,19.9,10.9,68,29.88,3.0,West,15.0,21.9,0.00,Snow,Light Snow,280,2013-03-17 15:53:00
12:00 PM,19.4,8.6,63,29.85,8.0,West,11.5,23.0,0.00,,Overcast,280,2013-03-17 16:00:00
12:53 PM,23.0,7.0,50,29.88,10.0,West,18.4,29.9,0.00,,Mostly Cloudy,270,2013-03-17 16:53:00
1:53 PM,19.0,5.0,54,29.90,3.0,WNW,13.8,26.5,0.00,Snow,Light Snow,300,2013-03-17 17:53:00
2:53 PM,19.0,-0.9,42,29.91,10.0,WNW,17.3,29.9,0.00,,Mostly Cloudy,290,2013-03-17 18:53:00
3:53 PM,21.0,-2.9,35,29.94,10.0,West,18.4,27.6,0.00,,Mostly Cloudy,280,2013-03-17 19:53:00
4:53 PM,18.0,-2.9,40,29.98,10.0,NW,18.4,28.8,N/A,,Overcast,310,2013-03-17 20:53:00
5:53 PM,17.1,-2.9,41,30.02,10.0,NW,12.7,21.9,N/A,,Overcast,320,2013-03-17 21:53:00
6:53 PM,15.1,-5.1,41,30.05,10.0,WNW,9.2,21.9,N/A,,Partly Cloudy,300,2013-03-17 22:53:00
7:53 PM,14.0,-7.1,39,30.09,10.0,WNW,10.4,20.7,N/A,,Clear,300,2013-03-17 23:53:00
8:53 PM,12.9,-7.1,41,30.13,10.0,WNW,13.8,23.0,N/A,,Clear,300,2013-03-18 00:53:00
9:53 PM,10.9,-7.1,44,30.17,10.0,NNW,6.9,-,N/A,,Clear,330,2013-03-18 01:53:00
10:53 PM,10.0,-7.1,46,30.19,10.0,NW,11.5,-,N/A,,Clear,320,2013-03-18 02:53:00
11:53 PM,9.0,-8.0,46,30.21,10.0,NW,5.8,-,N/A,,Clear,310,2013-03-18 03:53:00